Location: Carri�res
(48.9069°N, 2.1792°E)
Time: 13:45:42
(UTC+00:00)

SJ-11-01 - Pass Details

Date: 17 January 2021
Orbit: 684 x 701 km, 98.0° (Epoch: 26 February)

Event Time Altitude Azimuth Distance (km) Brightness Sun altitude
Rises 18:26:33 0° 161° (SSE) 3,061 7.5 -19.4°
Reaches altitude 10° 18:28:47 10° 160° (SSE) 2,146 6.7 -19.7°
Maximum altitude 18:33:29 79° 75° (ENE) 710 4.1 -20.5°
Drops below altitude 10° 18:38:12 10° 349° (NNW) 2,152 6.9 -21.3°
Sets 18:40:27 0° 348° (NNW) 3,071 7.7 -21.6°
